Location: Newark
(40.9833°N, 0.0333°W)
Time: 18:25:50
(UTC+00:00)

Transit 4A - Pass Details

Date: 06 November 2020
Orbit: 862 x 982 km, 66.8° (Epoch: 23 November)

Event Time Altitude Azimuth Distance (km) Brightness Sun altitude
Rises 20:21:27 0° 337° (NNW) 3,694 11.4 -40.1°
Enters shadow 20:24:37 10° 352° (N) 2,751 10.5 -40.7°
Reaches altitude 10° 20:24:40 10° 352° (N) 2,739 - -40.7°
Maximum altitude 20:29:37 23° 43° (NE) 1,950 - -41.6°
Drops below altitude 10° 20:34:29 10° 94° (E) 2,693 - -42.5°
Sets 20:37:36 0° 108° (ESE) 3,617 - -43.0°
